Location: Dachov
(49.0569°N, 13.9176°E)
Time: 22:09:15
(UTC+00:00)

Daily predictions for brighter satellites

Satellite Brightness Start Highest point End
(mag) Time Altitude Azimuth Time Altitude Azimuth Time Altitude Azimuth
Cosmos 1606 3.5 15:41:17 10° SSE 15:44:34 30° E 15:47:55 10° NNE
FengYun 1-2 T 4.4 15:39:43 10° SE 15:45:09 54° ENE 15:50:34 10° N
Cosmos 44 3.6 15:42:56 10° NNW 15:47:36 42° NE 15:51:59 10° ESE
ATLAS CENTAUR R/B 1.5 15:43:56 10° SW 15:48:02 87° SE 15:52:32 10° NE
SL-16 R/B 4.5 15:43:43 10° N 15:48:29 24° NW 15:53:15 10° WSW
Cosmos 2221 3.3 15:46:11 10° SSE 15:49:58 32° E 15:53:48 10° NNE
Cosmos 2098 Rocket 4.3 15:44:46 10° N 15:51:09 90° ESE 15:58:26 10° S
COSMO-SKYMED 1 4.4 15:52:53 10° ENE 15:54:37 12° E 15:56:21 10° ESE
CZ-2C R/B 4.1 15:53:27 10° NE 15:56:36 16° E 15:59:44 10° SE
NOAA 12 4.1 15:52:16 10° SSE 15:57:35 78° ENE 16:02:56 10° NNW
CZ-4C R/B 3.7 15:52:17 10° NW 15:57:50 29° NNE 16:04:20 10° ENE
USA 308 2.9 15:56:53 10° WSW 16:01:09 83° SSE 16:05:10 11° ENE
Okean O Rocket 2.9 16:01:30 10° ESE 16:04:41 20° ENE 16:07:54 10° NNE
ISS -3.5 16:05:50 10° W 16:09:12 57° N 16:11:56 14° ENE
Cosmos 1464 Rocket 4.1 16:06:09 10° S 16:12:26 68° E 16:18:47 10° NNE
YAOGAN 1 4.3 16:13:14 13° NE 16:13:14 13° NE 16:14:57 10° NNE
NOAA 6 4.0 16:08:53 10° SSE 16:14:00 73° ENE 16:19:09 10° NNW
Cosmos 1461 3.6 16:10:25 10° WSW 16:14:30 48° NW 16:18:28 10° NNE
Cosmos 2084 4.0 16:15:06 10° NNW 16:19:06 38° NE 16:23:06 11° ESE
Cosmos 1408 Rocket 3.4 16:14:49 10° N 16:19:10 73° E 16:23:31 10° SSE
Cosmos 1271 Rocket 3.2 16:16:35 10° SSW 16:20:28 64° WNW 16:24:27 10° N
NOSS 2-1 (E) 3.0 16:18:02 10° SW 16:21:15 69° NW 16:24:04 14° NE
GEOS 3 Rocket 3.9 16:17:33 10° ESE 16:22:31 45° NE 16:27:27 10° NNW
CZ-4 R/B 3.5 16:24:22 11° NNE 16:24:22 11° NNE 16:24:46 10° NNE
CZ-4B R/B 3.7 16:18:45 10° S 16:22:51 55° W 16:26:47 10° NNW
Cosmos 1743 Rocket 3.8 16:19:21 10° N 16:23:31 44° ENE 16:27:39 10° SSE
Cosmos 1697 Rocket 3.1 16:18:20 10° NNW 16:23:37 40° NE 16:28:52 10° ESE
Cosmos 1980 Rocket 3.2 16:20:33 10° NNW 16:25:16 26° NE 16:28:49 15° E
Cosmos 1937 Rocket 4.2 16:20:55 10° N 16:25:43 33° NE 16:30:30 10° ESE
Cosmos 1782 4.3 16:24:08 10° SE 16:26:50 18° E 16:26:58 18° E
Nadezhda 4 Rocket 4.0 16:20:33 10° N 16:26:53 75° E 16:33:13 10° SSE
Lacrosse 5 3.9 16:22:52 10° WNW 16:27:21 31° SW 16:31:47 10° S
USA 267 3.4 16:21:33 13° NE 16:27:29 71° NNW 16:33:59 10° WSW
Cosmos 1763 Rocket 4.2 16:23:22 10° SSE 16:27:48 32° ESE 16:31:14 15° NE
deb Kosmos-1763 3.8 16:24:28 10° SSW 16:27:52 79° ESE 16:30:54 13° NNE
SL-16 R/B 4.0 16:26:06 10° N 16:28:40 13° NNE 16:29:47 12° NE
Cosmos 1656 3.6 16:24:28 10° NNW 16:30:00 76° ENE 16:35:36 10° SSE
USA 305 3.0 16:26:19 10° WSW 16:30:32 67° NNW 16:33:22 20° ENE
CZ-2C R/B 3.9 16:26:16 10° S 16:31:07 50° W 16:35:50 10° NNW
CZ-4B DEB 4.2 16:27:47 10° SSE 16:33:19 82° ENE 16:38:51 10° NNW
Cosmos 1340 Rocket 2.7 16:32:06 10° N 16:36:10 71° ENE 16:40:14 10° SSE
Cosmos 2082 Rocket 3.7 16:33:37 10° SE 16:36:39 15° E 16:36:39 15° E
Cosmos 1092 Rocket 4.1 16:30:53 10° N 16:37:09 56° ENE 16:43:21 10° SSE
USA 229 DEB 3.9 16:31:23 10° NW 16:38:35 67° NE 16:46:18 10° SE
USA 229 3.9 16:31:28 10° NW 16:38:41 66° NE 16:46:23 10° SE
Cosmos 990 Rocket 3.9 16:36:11 10° NNW 16:41:25 70° ENE 16:46:34 10° SSE
COSMOS 2406 4.1 16:36:58 10° SSE 16:41:44 28° ESE 16:43:56 22° ENE
AQUARIUS 4.4 16:37:43 10° S 16:42:12 73° WSW 16:46:43 10° NNW
SKYMED 2 4.2 16:40:36 19° NE 16:43:10 34° E 16:47:06 10° SSE
Lacrosse 5 rocket 2.6 16:40:38 10° NW 16:43:52 25° N 16:45:17 20° NE
Cosmos 1602 3.9 16:42:48 10° N 16:46:31 45° ENE 16:50:14 10° SSE
USA 276 2.0 16:43:26 10° WNW 16:46:34 81° SSW 16:47:51 32° ESE
ATLAS 2AS CENTAUR R/B 4.1 16:39:39 10° W 16:46:37 34° NNW 16:52:29 13° NE
ATLAS CENTAUR R/B 3.3 16:38:50 10° SSW 16:48:27 48° SE 16:50:57 26° E
PAYLOAD B 4.2 16:43:20 10° SSE 16:48:56 86° ENE 16:54:35 10° NNW
Cosmos 1933 3.6 16:45:05 10° SSE 16:48:57 44° E 16:51:18 21° NNE
Cosmos 1428 Rocket 4.4 16:43:43 10° N 16:49:46 59° ENE 16:55:49 10° SSE
SJ 16-02 3.3 16:46:06 10° NW 16:49:59 32° WSW 16:53:51 10° SSW
Cosmos 1500 Rocket 3.6 16:49:30 10° N 16:54:00 86° W 16:58:26 10° S
Cosmos 1627 Rocket 4.4 16:48:42 10° N 16:54:53 63° ENE 17:00:58 10° SSE
Cosmos 2034 Rocket 4.0 16:49:44 10° S 16:55:54 85° W 17:02:06 10° N
TIMED 4.5 16:53:20 10° SSW 16:57:42 86° WNW 17:00:57 18° NNE
CZ-2D R/B 3.5 16:57:35 10° S 17:01:26 68° W 17:05:16 10° NNW
NOSS 3-1 (A) 4.0 16:54:39 10° NW 17:02:03 87° NE 17:10:46 10° SE
USA 306 3.3 16:58:18 10° W 17:02:29 53° NNW 17:04:00 34° NE
Meteor 1-20 Rocket 4.3 16:58:21 10° NNW 17:04:11 85° W 17:10:02 10° S
Cosmos 1805 Rocket 3.4 17:00:31 10° N 17:04:52 75° ENE 17:09:12 10° SSE
Cosmos 1833 Rocket 2.8 17:03:51 10° S 17:09:18 55° ESE 17:11:51 30° NE
Cosmos 2360 4.1 17:04:31 10° NNW 17:10:18 74° ENE 17:16:01 10° SE
Cosmos 2279 Rocket 4.3 17:05:37 10° SSE 17:11:24 42° E 17:16:36 13° NNE
NOSS 2-2 (D) 4.3 17:07:54 10° NW 17:12:41 53° NE 17:15:23 31° ESE
CZ-4B R/B 3.2 17:08:10 10° SSE 17:13:39 85° WSW 17:19:04 10° NNW
Meteor 1-14 Rocket 4.4 17:08:20 10° N 17:13:56 50° ENE 17:19:37 10° SSE
NOSS 2-2 (E) 4.3 17:09:10 10° NW 17:14:10 64° NE 17:18:12 24° ESE
Sich 1 2.8 17:11:47 10° N 17:16:05 77° E 17:20:22 10° SSE
ARGOS 3.0 17:12:30 10° SSE 17:17:55 83° ENE 17:23:23 10° NNW
USA 307 3.4 17:14:48 10° W 17:18:59 50° NNW 17:19:51 42° NNE
ERBS 2.9 17:16:18 10° W 17:19:24 43° NNW 17:19:27 43° NNW
H-2A R/B 2.6 17:14:30 10° S 17:19:41 61° W 17:24:45 10° NNW
Cosmos 1898 Rocket 3.6 17:14:49 10° NNW 17:20:07 78° WSW 17:25:20 10° SSE
MOS 1-B Rocket 3.9 17:14:42 10° NNE 17:20:26 89° ESE 17:26:46 10° SSW
YAOGAN 3 4.5 17:16:33 10° SSE 17:20:54 89° WSW 17:25:18 10° NNW
Cosmos 1634 Rocket 3.9 17:15:08 10° S 17:21:25 75° E 17:27:46 10° NNE
SL-24 R/B - RUBIN 2 3.8 17:18:47 10° NNW 17:23:11 48° NE 17:23:11 48° NE
Cosmos 1655 Rocket 4.5 17:19:08 10° N 17:24:55 38° ENE 17:24:55 38° ENE
COSMOS 2455 3.3 17:20:12 10° S 17:25:41 38° ESE 17:25:53 38° ESE
Landsat 5 3.3 17:27:18 67° E 17:27:28 68° ESE 17:31:32 10° S
ATLAS CENTAUR R/B 3.5 17:24:09 10° W 17:27:32 22° NNW 17:29:27 17° N
Cosmos 468 Rocket 3.9 17:22:30 10° SSW 17:27:40 87° WNW 17:30:21 30° NNE
SL-19 R/B 4.4 17:23:36 10° NNE 17:29:34 89° ESE 17:36:00 10° SSW
CZ-4 R/B 4.5 17:25:28 10° S 17:29:34 77° WSW 17:33:44 10° NNW
COSMO-SKYMED 1 2.5 17:29:13 30° N 17:31:22 82° WNW 17:35:42 10° SSW
Meteor 2-16 Rocket 4.3 17:25:46 10° N 17:31:51 67° ENE 17:37:57 10° SSE
Cosmos 2026 Rocket 4.1 17:28:10 10° NNW 17:34:20 73° W 17:40:23 10° S
SL-08 RB Rocket 3.6 17:31:16 10° SSE 17:35:55 87° ENE 17:40:35 10° NNW
Cosmos 540 Rocket 3.3 17:31:15 10° SSW 17:36:19 71° ESE 17:37:03 60° ENE
deb Chang Zheng 4 4.4 17:32:12 10° S 17:36:23 51° W 17:40:37 10° NNW
CZ-2C R/B 2.6 17:32:51 13° NNE 17:37:35 80° WNW 17:42:44 10° SSW
Cosmos 1500 3.5 17:36:40 10° NNW 17:44:46 - S 17:40:06 62° WNW
Okean O Rocket 2.2 17:36:16 10° S 17:40:39 57° W 17:45:04 10° NNW
USA 308 3.6 17:37:13 10° W 17:41:12 44° NNW 17:41:12 44° NNW
Cosmos 2360 Rocket 4.1 17:39:29 10° N 17:41:19 15° NNE 17:41:19 15° NNE
ISS -2.1 17:42:54 10° WNW 17:44:55 32° WNW 17:44:55 32° WNW
CZ-4C R/B 2.9 17:40:45 10° NW 17:47:40 64° NE 17:49:48 48° E
YAOGAN 1 3.7 17:50:22 34° NNW 17:50:22 34° NNW 17:52:51 10° NNW
Cosmos 2180 Rocket 4.4 17:42:16 10° S 17:48:31 61° E 17:49:36 53° NE
Meteor 1-5 Rocket 4.2 17:49:07 10° NNW 17:55:08 89° ENE 18:01:06 10° S
CZ-4 R/B 3.7 18:00:22 16° NNW 18:00:22 16° NNW 18:01:16 10° NNW
Cosmos 2369 3.9 17:53:52 10° NNW 17:59:35 69° WSW 18:02:24 31° S
Cosmos 2322 Rocket 3.8 17:55:10 10° NNW 17:57:35 21° N 17:57:35 21° N
Cosmos 1782 3.9 17:58:57 10° SSW 18:02:36 43° W 18:02:36 43° W
Cosmos 1697 Rocket 3.9 18:02:24 10° NW 18:07:37 41° WSW 18:12:49 10° S
Cosmos 1980 Rocket 2.3 18:04:11 10° NNW 18:09:51 72° WSW 18:10:40 62° SSW
NOSS 2-2 (C) 4.4 18:04:54 10° NW 18:10:01 76° SW 18:10:59 63° S
USA 267 3.8 18:08:54 42° NNE 18:10:02 46° N 18:16:12 10° WNW
USA 305 4.5 18:06:48 10° WNW 18:09:22 30° NW 18:09:22 30° NW
Cosmos 841 Rocket 3.7 18:05:45 10° SSW 18:10:09 64° SW 18:10:09 64° SW
Cosmos 2333 Rocket 4.4 18:10:32 10° N 18:11:35 13° N 18:11:35 13° N
SL-16 R/B 3.6 18:08:59 10° NNW 18:11:40 26° N 18:11:40 26° N
Cosmos 2082 Rocket 2.7 18:14:21 10° SSW 18:18:33 52° SSW 18:18:33 52° SSW
Lacrosse 5 rocket 3.8 18:19:57 10° NW 18:20:53 16° NW 18:20:53 16° NW
Cosmos 2278 4.0 18:19:57 10° NNW 18:24:48 62° NW 18:24:48 62° NW
COSMOS 2406 3.7 18:20:02 10° SW 18:25:42 57° NW 18:26:02 56° NW
ATLAS 2AS CENTAUR R/B 4.2 18:33:36 10° NW 18:39:50 26° N 18:39:54 26° N
Cosmos 1833 Rocket 4.2 18:48:33 10° WSW 18:53:32 32° NW 18:53:35 32° NW
COSMOS 2455 4.3 19:05:41 10° WSW 19:09:04 32° WSW 19:09:04 32° WSW
CZ-4C R/B 4.0 19:29:25 10° NW 19:35:02 41° W 19:35:02 41° W
